Air Resources Laboratory banner image
Air Resources Laboratory web site National Oceanic and Atmospheric Administration (NOAA)

oh zone


NYZ176-178-MAZ106-OHZ011-021-055-MIZ076-KYZ091-ILZ014-INZ047-
MNZ060-ONZ431-210300-

...Gateway Observations for Savannah International...

CITY           SKY/WX    TMP DP  RH WIND       PRES   REMARKS
Savannah Arpt  FAIR      78  76  93 CALM      29.90S
Atlanta        FAIR      79  69  71 S5        29.97R
Charlotte      FAIR      81  67  62 SE10      29.96R
Dallas DFW     CLOUDY    99  56  23 S13       29.85R HX  97
Houston Bush   MOCLDY    92  72  51 S6        29.92S HX  99
Wash National  MOCLDY    78  63  59 SE12      30.05R
Wash Dulles    MOCLDY    74  60  61 SE8       30.03F
Baltimore      MOCLDY    77  64  64 E12       30.05R
Philadelphia   FAIR      71  59  65 S5        30.12R
Newark         MOCLDY    73  61  65 VRB5      30.12S
Laguardia      MOCLDY    75  57  53 S9        30.12S
J F K          MOCLDY    71  60  68 SE8       30.14R
Boston         FAIR      72  60  66 S10       30.16R
Pittsburg      MOCLDY    71  64  78 S12G20    29.93R
Akron          MOCLDY    75  62  64 S20G28    29.84F
Cleveland      MOCLDY    76  65  68 S15       29.82R
Cincinnati     LGT RAIN  66  65  96 SE9       29.80F
Columbus       MOCLDY    66  66 100 S12       29.85R
Detroit        CLOUDY    74  60  61 S9        29.78R
Chicago O'Hare CLOUDY    70  67  90 W10G21    29.64F FOG
Minneapolis    MOCLDY    69  64  84 N13       29.90R
Indianapolis   MOCLDY    75  65  70 W7        29.76S
Toronto Canada MOCLDY    79  64  61 E7        29.87S